User: anonymous   Login
Location: Brno
(49.2000°N, 16.6330°E)
Time: 20:08:50
(UTC+02:00)
Language:

BREEZE M DEB (TANK) - Orbit

View from above orbital plane
View from above orbital plane
View from above satellite
View from above satellite

Ground track
Ground track

The orbit data is extracted from the following two-line orbital elements,

1 28359U 04022B   18111.35738047  .00002066  00000-0  22812-3 0  9996
2 28359  49.5077  98.4484 4667306 130.9224 280.1146  6.21174755304424
Epoch (UTC): 21 April 2018 08:34:37
Eccentricity: 0.4667306
inclination: 49.5077°
perigee height: 288 km
apogee height: 11956 km
right ascension of ascending node: 98.4484°
argument of perigee: 130.9224°
revolutions per day: 6.21174755
mean anomaly at epoch: 280.1146°
orbit number at epoch: 30442

The dashed part of the orbit path shows where the satellite is in the earth's shadow,  

DLR